DW2168 Weather Reports


time (UTC)temp
C
wind
direction
speed
KPH
gust
KPH
rain 1hr
cm
rain 24hr
cm
rain mn
cm
humidity
%
barometer
mb
20260506134005 11 1 1.6 8.0 0.00 0.00 0.00 74 1013.9
20260506133006 11 1 1.6 8.0 0.00 0.00 0.00 74 1013.9
20260506132005 10 1 1.6 8.0 0.00 0.00 0.00 73 1013.9
20260506131006 11 1 3.2 8.0 0.00 0.00 0.00 75 1013.9
20260506130006 10 1 1.6 6.4 0.00 0.00 0.00 75 1013.8
20260506125006 10 1 1.6 8.0 0.00 0.00 0.00 72 1013.6
20260506124005 9 1 1.6 6.4 0.00 0.00 0.00 73 1013.6
20260506123006 10 1 1.6 8.0 0.00 0.00 0.00 70 1013.5
20260506121006 10 1 0.0 4.8 0.00 0.00 0.00 68 1013.5
20260506120005 11 1 0.0 4.8 0.00 0.00 0.00 67 1013.5
20260506115005 10 1 1.6 8.0 0.00 0.00 0.00 67 1013.5
20260506114006 10 1 3.2 8.0 0.00 0.00 0.00 70 1013.5
20260506113006 10 1 3.2 9.7 0.00 0.00 0.00 67 1013.5
20260506112006 10 1 0.0 6.4 0.00 0.00 0.00 68 1013.4
20260506111006 10 1 1.6 6.4 0.00 0.00 0.00 67 1013.3
20260506110006 10 1 1.6 8.0 0.00 0.00 0.00 68 1013.2
20260506104006 11 1 0.0 4.8 0.00 0.00 0.00 64 1013.1
20260506103006 11 1 1.6 8.0 0.00 0.00 0.00 63 1013.1
20260506101005 10 1 1.6 9.7 0.00 0.00 0.00 64 1012.9
20260506100005 10 1 1.6 9.7 0.00 0.00 0.00 63 1012.8
20260506095005 10 1 1.6 8.0 0.00 0.00 0.00 63 1012.9
20260506094006 10 1 0.0 3.2 0.00 0.00 0.00 62 1012.9
20260506093005 11 1 0.0 3.2 0.00 0.00 0.00 62 1012.8
20260506090005 12 0 0.0 0.0 0.00 0.00 0.00 59 1012.4
20260506085006 12 0 0.0 0.0 0.00 0.00 0.00 55 1012.4
20260506084006 12 1 0.0 1.6 0.00 0.00 0.00 60 1012.3
20260506082005 14 1 0.0 4.8 0.00 0.00 0.00 54 1012.0
20260506081005 14 1 1.6 6.4 0.00 0.00 0.00 53 1011.9
20260506073005 15 1 3.2 9.7 0.00 0.00 0.00 51 1011.8
20260506072006 15 1 3.2 8.0 0.00 0.00 0.00 49 1011.8
20260506071006 15 1 3.2 9.7 0.00 0.00 0.00 49 1011.9
20260506062006 16 1 1.6 8.0 0.00 0.00 0.00 42 1011.8
20260506061006 16 1 1.6 8.0 0.00 0.00 0.00 43 1011.6
20260506051006 16 1 0.0 4.8 0.00 0.00 0.00 44 1011.4
20260506045006 16 1 1.6 6.4 0.00 0.00 0.00 43 1011.3
20260506043006 17 1 0.0 4.8 0.00 0.00 0.00 42 1011.2
20260506041006 19 1 0.0 3.2 0.00 0.00 0.00 38 1011.0
20260506040005 19 1 1.6 6.4 0.00 0.00 0.00 37 1010.9
20260506035007 20 1 1.6 6.4 0.00 0.00 0.00 37 1010.7
20260506034008 20 1 1.6 4.8 0.00 0.00 0.00 37 1010.7
20260506033007 20 1 0.0 4.8 0.00 0.00 0.00 36 1010.6
20260506032007 20 0 0.0 0.0 0.00 0.00 0.00 38 1010.5
20260506031006 21 0 0.0 0.0 0.00 0.00 0.00 37 1010.4
20260506025007 23 1 0.0 3.2 0.00 0.00 0.00 33 1010.4
20260506024007 23 1 1.6 6.4 0.00 0.00 0.00 30 1010.3
20260506023006 24 1 1.6 9.7 0.00 0.00 0.00 28 1010.4
20260506021007 25 1 3.2 8.0 0.00 0.00 0.00 26 1010.5
20260506020007 26 1 3.2 11.3 0.00 0.00 0.00 25 1010.5
20260506014007 26 1 1.6 6.4 0.00 0.00 0.00 25 1010.6
20260506013007 26 1 1.6 6.4 0.00 0.00 0.00 24 1010.7
20260506012007 26 1 3.2 11.3 0.00 0.00 0.00 25 1010.8
20260506011007 26 1 3.2 8.0 0.00 0.00 0.00 25 1011.0
20260506010007 26 1 3.2 11.3 0.00 0.00 0.00 26 1011.0
20260506005006 26 359 1.6 8.0 0.00 0.00 0.00 26 1011.2
20260506004007 26 1 4.8 11.3 0.00 0.00 0.00 25 1011.2
20260506003007 26 1 4.8 11.3 0.00 0.00 0.00 26 1011.3
20260506002006 26 1 1.6 8.0 0.00 0.00 0.00 25 1011.4
20260506001007 27 1 4.8 9.7 0.00 0.00 0.00 25 1011.5
20260505235007 26 1 6.4 16.1 0.00 0.00 0.00 25 1011.8
20260505234007 26 1 1.6 11.3 0.00 0.00 0.00 27 1011.9
20260505232007 26 1 6.4 14.5 0.00 0.00 0.00 25 1012.3
20260505231006 25 1 1.6 9.7 0.00 0.00 0.00 27 1012.4
20260505230007 25 359 3.2 9.7 0.00 0.00 0.00 28 1012.4
20260505225007 25 359 4.8 9.7 0.00 0.00 0.00 28 1012.6
20260505224007 25 1 4.8 9.7 0.00 0.00 0.00 29 1012.7
20260505223007 25 1 6.4 12.9 0.00 0.00 0.00 27 1013.0
20260505222007 25 1 4.8 11.3 0.00 0.00 0.00 27 1013.0
20260505221007 25 1 4.8 12.9 0.00 0.00 0.00 29 1013.1
20260505220007 24 1 4.8 16.1 0.00 0.00 0.00 28 1013.3
20260505215007 25 1 4.8 12.9 0.00 0.00 0.00 28 1013.5
20260505214007 24 1 6.4 12.9 0.00 0.00 0.00 28 1013.5
20260505213006 24 1 3.2 11.3 0.00 0.00 0.00 30 1013.6
20260505212007 24 1 3.2 12.9 0.00 0.00 0.00 29 1013.8
20260505210007 23 2 4.8 12.9 0.00 0.00 0.00 31 1014.1
20260505205007 23 1 4.8 12.9 0.00 0.00 0.00 30 1014.2
20260505204007 22 1 1.6 8.0 0.00 0.00 0.00 32 1014.3
20260505201007 22 1 4.8 12.9 0.00 0.00 0.00 31 1014.6
20260505195007 22 1 1.6 9.7 0.00 0.00 0.00 30 1015.0
20260505193007 20 1 1.6 8.0 0.00 0.00 0.00 31 1015.3
20260505192007 20 1 1.6 8.0 0.00 0.00 0.00 31 1015.4
20260505191007 20 1 1.6 9.7 0.00 0.00 0.00 32 1015.5
20260505190007 20 1 3.2 9.7 0.00 0.00 0.00 33 1015.6
20260505185007 19 1 3.2 8.0 0.00 0.00 0.00 32 1015.7
20260505184007 19 1 3.2 11.3 0.00 0.00 0.00 34 1015.8
20260505181006 18 1 0.0 4.8 0.00 0.00 0.00 36 1016.0
20260505180007 17 1 1.6 6.4 0.00 0.00 0.00 38 1016.1
20260505175007 17 1 3.2 9.7 0.00 0.00 0.00 40 1016.2
20260505174007 16 1 3.2 8.0 0.00 0.00 0.00 38 1016.2
20260505172008 16 1 3.2 9.7 0.00 0.00 0.00 42 1016.4
20260505171007 15 1 3.2 9.7 0.00 0.00 0.00 42 1016.5
20260505170007 15 1 3.2 9.7 0.00 0.00 0.00 44 1016.5
20260505163008 13 1 4.8 11.3 0.00 0.00 0.00 47 1016.6
20260505162006 13 1 3.2 11.3 0.00 0.00 0.00 49 1016.6
20260505161007 13 1 4.8 12.9 0.00 0.00 0.00 49 1016.6
20260505153006 11 1 6.4 11.3 0.00 0.00 0.00 53 1016.6
20260505151006 11 1 4.8 9.7 0.00 0.00 0.00 53 1016.7